Weather in Podlopatki

Russia / Republic of Buryatia     50°55′01″N   107°05′34″E
temp.,
°C
wind,
m/s
gust,
m/s
humid.,
%
clouds,
%
prec.,
mm/h
press.,
hPa
HPBL,
m
8 may, sat
sat823:00+3nw2266100 0.0 101411
02:00+1ne11745 0.0 101310
05:00−1e11815 0.0 101310
08:00+5ese1156100 0.0 1013327
11:00+9w3341100 0.0 10111323
14:00+10wnw3344100 0.0 10101493
17:00+11nw66355 0.0 10091573
20:00+8nnw48500 0.0 1011211
9 may, sun
sun923:00+4wnw22745 0.0 101310
02:00+3w118255 0.0 101410
05:00+3sw2281100 0.0 101412
08:00+6w146761 0.0 1014312
11:00+12sw444547 0.0 10111465
14:00+14w343686 0.0 10082283
17:00+16nnw243045 0.0 10062370
20:00+12se2243100 0.0 100610
10 may, mon
mon1023:00+9se115915 0.0 100723
02:00+7nw2479100 0.6 1008150
05:00+5nnw3890100 4.5 1009691
08:00+4nnw3995100 10.1 1010633
11:00+5nnw7985100 4.0 1011761
14:00+7nnw7968100 4.4 10111247
17:00+7nnw81161100 0.1 10121377
20:00+5nw61275100 0.1 1013888
11 may, tue
tue1123:00+3nw61282100 0.0 1015737
02:00+3nw5107639 0.0 1014594
05:00+1nw612805 0.0 1014473
08:00+5wnw5117499 0.0 10131093
11:00+7nw6861100 0.1 10131355
14:00+8nnw675986 0.2 10121379
17:00+8n67616 0.0 1012937
20:00+5nnw46736 0.0 1014282
12 may, wed
wed1223:00+3nw248695 0.0 1015142
02:00+4e117998 0.0 101495
05:00+3ssw2283100 0.0 1014104
08:00+5sw2473100 0.0 1014519
11:00+7nnw336996 0.1 1013830
14:00+10n565459 0.3 10111480
17:00+11nne44535 0.0 10101113
20:00+8ne34645 0.0 101196